小惑星2013 YF48

2013 YF48

English version
Home page
Updated on February 2, 2014

---------------------------------------------------------------------

・ プロフィール

発見日 2013年12月28日
発見光度 21.9等
発見者 Mt. Lemmon Survey

・ 軌道要素

Epoch 2013 Nov. 4.0 TT = JDT 2456600.5                  MPC
M 348.75673              (2000.0)            P               Q
n   0.03474104     Peri.   34.42486     +0.62404947     -0.57046742
a   9.3019534      Node    33.14830     +0.28776018     -0.46755804
e   0.5236597      Incl.   77.56236     +0.72646840     +0.67524544
P  28.37           H   14.0           G   0.15           U   3

・ 光度変化

        H = 14.0  G = 0.15

---------------------------------------------------------------------

軌道要素はM.P.E.C. 2013-Y73に掲載されたものです。
光度グラフはComet for Windowsで作成したものです。

---------------------------------------------------------------------

Copyright(C) Seiichi Yoshida (comet@aerith.net). All rights reserved.